Theta_e
342 342 336 338 337 337 335 325 327 336 330 332 333 334 332 325 325 325 324 323 327 331 331 330 329 328 327 328 328 327 328 326 327 327 331 332 332 330 330 332 331 323 331
343 341 333 337 337 338 337 327 325 326 336 332 331 329 326 326 329 330 331 325 326 329 328 326 325 324 322 322 323 325 324 324 326 328 324 330 329 329 330 332 334 329 323
341 341 335 335 334 337 337 337 328 332 332 339 336 333 333 333 332 333 336 334 334 334 336 334 332 328 320 322 322 323 324 324 324 325 327 332 325 321 326 330 331 332 332
336 342 341 335 337 336 337 336 334 337 325 334 338 339 334 333 332 333 335 336 331 334 335 335 326 317 318 322 322 323 326 323 324 326 330 331 331 322 318 322 328 332 332
340 341 342 341 339 339 338 337 332 337 324 336 336 335 333 331 331 331 330 328 332 336 334 334 329 318 315 318 321 323 324 324 326 332 332 332 331 322 316 314 321 322 325
341 341 341 341 342 341 339 333 337 336 337 337 334 331 329 332 330 328 328 334 337 337 335 335 333 322 317 316 319 322 322 322 324 333 331 327 331 322 319 321 326 327 327
329 333 339 341 341 341 339 337 336 337 335 335 332 329 333 333 330 333 331 332 333 333 334 334 332 321 315 317 315 317 322 322 330 333 331 329 328 318 316 320 325 326 326
314 314 314 323 338 340 341 338 337 337 336 335 331 334 332 330 331 334 333 328 326 325 327 327 324 317 313 316 315 314 321 324 327 331 328 326 316 324 326 324 322 321 322
314 314 313 312 313 329 337 339 338 336 336 334 327 334 336 329 333 334 335 331 326 323 322 320 316 313 312 312 312 312 320 322 332 328 327 324 325 328 328 326 322 317 315
314 313 312 312 312 312 315 335 339 338 336 334 332 336 337 335 330 335 337 334 329 323 320 315 312 310 310 309 309 311 320 323 328 328 325 326 326 329 329 326 321 312 309
310 309 309 309 309 311 311 317 333 337 338 334 333 332 334 335 332 335 337 335 332 325 319 311 309 309 308 308 308 310 323 327 328 327 324 318 331 330 328 324 318 315 310
311 311 311 310 309 310 310 311 319 331 335 336 334 333 334 334 333 335 336 337 333 327 319 309 308 308 308 313 309 315 326 327 328 327 326 322 331 330 325 321 320 319 310
310 310 310 310 310 310 310 311 311 323 331 334 335 335 334 334 332 332 335 337 335 328 319 308 307 308 315 322 321 325 327 327 327 326 325 322 329 329 323 323 323 320 312
309 309 309 310 311 311 310 311 311 311 315 321 329 332 333 335 333 333 335 335 336 331 323 320 323 314 318 322 324 326 327 326 326 326 325 326 329 326 323 322 323 310 307
311 311 309 309 311 311 311 311 310 311 313 316 312 315 321 332 334 333 334 335 335 331 322 323 321 314 320 322 323 325 326 326 326 325 323 325 328 326 324 320 322 311 306
311 311 311 310 310 310 310 311 311 310 310 311 311 311 310 311 329 331 335 334 333 327 321 321 319 313 321 322 323 324 324 324 324 317 324 328 325 323 321 319 322 309 309
311 311 311 310 310 310 311 311 311 311 310 310 310 310 310 310 310 322 333 332 333 330 319 320 318 318 321 322 322 322 322 319 316 321 325 322 321 318 319 320 317 309 313
311 311 311 311 310 310 311 311 311 311 310 310 311 310 310 310 311 328 329 329 329 327 328 318 316 318 320 322 322 321 318 319 322 323 325 324 321 319 318 319 319 310 312
311 310 310 310 310 311 311 311 311 311 311 310 310 310 310 310 311 318 318 325 326 328 326 322 320 315 319 321 320 318 320 320 323 322 322 322 320 318 317 317 318 308 307
310 309 309 309 308 308 309 311 311 311 311 311 310 310 310 310 313 313 321 324 326 326 321 319 313 311 319 320 318 319 319 320 319 320 320 319 316 315 314 315 310 304 310
309 309 309 308 308 308 308 307 307 310 311 311 310 310 311 310 312 315 320 325 324 324 323 321 317 312 315 318 318 319 317 316 316 315 314 313 312 313 311 307 305 304 306
309 309 308 307 306 307 306 306 307 307 311 310 310 310 311 311 312 314 319 321 320 322 316 315 311 312 316 315 316 316 312 311 312 311 311 311 309 307 306 304 303 303 303
307 306 306 306 309 309 309 309 309 309 309 313 309 310 311 312 313 313 315 319 319 320 320 316 312 312 316 317 317 316 314 313 309 310 310 308 307 306 305 304 303 302 300
306 306 306 308 308 308 309 309 309 311 313 313 315 310 311 311 313 316 316 317 318 319 317 314 315 318 318 317 316 316 315 313 312 308 309 308 308 306 304 302 300 300 299
305 305 308 309 309 309 310 310 310 310 311 313 313 315 310 311 311 318 316 317 318 318 314 314 317 318 316 316 317 316 315 314 311 310 306 308 308 306 303 301 300 300 300
306 307 309 309 310 310 310 309 310 310 310 311 313 314 314 310 312 314 317 316 316 319 317 313 315 315 316 317 316 315 314 314 311 309 307 306 305 304 303 301 301 300 300
Wind_Speed
5 8 15 12 11 10 10 12 12 11 11 11 10 9 9 8 8 8 8 10 12 11 9 9 8 9 7 6 9 8 8 8 8 7 8 10 10 10 11 11 12 13 14
4 6 13 12 13 11 11 13 12 12 11 10 12 11 10 9 8 8 8 11 11 10 8 8 6 5 7 8 8 6 6 7 8 9 9 10 9 10 10 11 11 10 11
1 8 9 12 9 13 11 12 13 12 13 12 9 11 10 9 8 8 9 12 10 7 8 8 6 5 4 6 7 6 5 5 6 8 10 7 7 6 7 8 9 11 11
4 9 10 7 11 11 14 12 14 14 15 13 13 10 11 10 10 10 10 10 7 10 13 10 7 2 5 6 7 8 6 5 5 8 7 7 5 5 4 5 7 10 10
4 8 9 8 9 11 12 15 14 15 15 15 14 13 13 12 11 11 11 10 11 12 13 8 4 3 4 6 8 8 8 7 7 9 8 7 5 4 3 4 5 5 6
4 3 7 9 11 7 12 14 15 16 15 15 16 16 15 13 12 13 12 11 11 12 11 9 6 4 6 7 8 10 10 8 6 8 6 5 5 2 4 8 8 7 7
3 1 3 9 13 13 9 14 16 17 17 16 16 17 16 15 13 13 14 13 13 13 14 12 10 8 9 9 9 10 10 8 9 8 5 4 4 5 6 10 10 9 9
1 2 4 5 9 14 14 12 16 18 17 18 19 18 18 17 16 17 16 13 11 13 14 14 13 11 10 11 11 11 12 10 10 8 5 5 4 10 9 12 9 6 6
9 9 8 8 8 10 14 16 15 15 19 19 21 20 19 18 17 19 18 14 12 13 15 15 15 13 12 11 12 13 13 11 10 7 4 4 10 13 16 11 9 6 3
16 16 16 15 13 11 11 15 18 17 16 19 22 20 20 19 19 20 20 16 12 13 14 14 13 13 12 11 12 14 16 13 10 8 4 7 10 15 16 11 5 5 3
19 19 20 21 19 17 14 14 18 18 19 19 21 24 23 22 21 23 25 20 14 13 13 13 13 12 11 11 13 15 17 14 12 7 4 6 16 21 15 8 3 3 3
14 13 14 16 19 19 18 16 16 19 20 20 23 25 25 22 23 25 27 23 18 16 14 13 13 12 11 11 15 17 16 13 12 8 5 8 21 17 9 4 2 3 3
21 20 17 16 16 19 20 18 17 17 19 22 23 25 25 26 27 27 28 29 23 19 17 15 15 13 12 11 14 15 15 14 11 9 8 10 18 16 9 3 5 7 3
18 20 21 20 17 16 19 21 20 19 17 18 19 21 27 29 30 30 32 31 26 22 15 13 12 13 13 13 14 15 15 13 11 8 10 14 16 15 9 4 5 5 1
13 13 14 18 20 18 17 18 23 23 20 18 21 22 23 27 33 33 32 35 32 25 18 14 13 14 14 15 16 16 15 13 11 12 14 17 20 15 7 4 7 5 1
10 12 12 13 19 20 19 18 19 20 24 25 24 24 25 23 26 28 41 38 38 27 19 14 14 16 15 15 16 16 15 13 12 14 15 25 18 10 5 3 9 4 2
8 10 11 9 9 12 14 16 17 18 19 21 23 26 28 26 24 25 30 29 37 32 26 13 13 15 15 16 16 16 17 15 16 18 24 15 11 8 2 3 6 3 6
9 11 12 10 6 9 12 16 19 19 21 21 20 22 23 25 23 25 26 22 25 34 28 26 18 15 17 17 19 20 16 14 16 21 21 16 12 9 6 4 9 5 6
7 9 10 10 10 9 10 15 20 23 24 24 23 23 21 22 24 22 24 23 26 32 34 31 29 25 17 21 19 18 19 20 19 18 17 14 12 10 7 5 10 6 5
7 11 15 18 19 18 17 18 19 21 25 27 26 25 23 21 21 23 20 21 32 30 30 32 32 30 31 25 23 20 20 20 20 18 16 13 11 9 8 8 7 9 10
11 16 21 27 30 32 32 30 26 26 26 28 30 28 26 23 21 23 23 28 26 31 33 35 35 38 35 31 24 23 17 16 16 14 14 13 12 12 12 10 11 11 15
21 28 36 39 37 38 39 37 33 30 25 30 29 29 28 25 24 22 26 28 29 34 34 38 40 40 38 32 32 25 13 12 14 15 15 14 14 14 13 13 14 14 13
29 34 33 34 34 33 31 30 30 30 31 26 32 31 30 29 27 25 25 27 29 36 39 41 41 43 44 41 37 24 12 10 17 13 15 15 14 15 15 15 15 15 14
33 33 31 30 31 30 28 30 27 24 24 23 24 31 32 29 30 27 26 27 30 33 36 40 42 42 41 43 37 30 22 17 14 10 16 18 17 16 16 17 16 16 14
33 31 29 29 28 28 28 26 25 23 24 24 25 25 30 31 28 28 29 29 29 32 37 40 41 40 35 39 38 35 28 23 16 12 14 22 20 21 20 19 18 17 15
25 29 27 25 27 25 24 23 23 25 25 25 27 29 30 31 29 29 30 31 30 35 39 42 43 42 40 38 40 35 32 31 28 22 14 19 19 22 22 21 20 18 16
Wind_Direction
198 206 190 187 193 189 187 185 187 183 185 184 176 171 168 162 157 156 158 158 159 163 166 162 163 139 135 120 119 132 135 119 126 121 123 113 107 104 108 107 90 113 113
204 202 196 189 184 199 203 193 195 195 184 186 185 180 175 172 170 165 169 164 162 164 175 176 168 173 152 157 155 151 131 127 125 119 113 108 105 99 98 105 124 113 116
201 184 197 185 206 189 206 206 194 200 194 183 191 182 180 180 176 172 166 160 169 179 162 151 143 135 167 157 155 151 144 146 142 129 105 105 106 113 111 113 113 114 115
213 185 184 197 196 222 198 215 197 211 208 187 190 196 197 193 192 185 179 189 193 186 170 168 167 147 166 167 165 153 157 159 149 131 113 111 95 114 135 152 139 117 113
127 180 196 202 205 217 220 210 219 212 206 195 195 202 210 205 203 197 201 210 196 192 188 204 173 161 197 180 176 175 180 175 153 122 127 118 114 92 119 140 143 142 135
91 178 219 221 229 237 226 230 209 224 215 207 206 209 212 211 212 214 210 195 191 192 201 209 216 265 223 200 192 188 188 175 159 146 134 106 127 89 118 128 133 127 120
68 22 264 240 239 235 230 231 215 228 220 209 216 215 215 214 221 209 202 195 203 214 217 232 247 265 230 212 205 199 192 181 155 159 148 117 164 143 147 146 153 150 142
309 312 315 297 262 246 239 236 226 224 228 217 218 222 222 223 220 211 206 202 213 225 232 240 249 250 234 219 213 204 194 184 164 170 154 137 149 135 133 142 148 159 156
280 282 286 292 289 270 252 245 240 235 225 224 222 227 228 226 225 218 213 213 221 234 238 243 247 241 228 222 214 201 192 177 169 177 161 145 147 152 146 143 107 90 113
277 278 276 275 276 273 266 250 243 244 241 229 227 231 229 232 231 228 217 226 230 238 241 245 242 237 226 214 208 195 185 177 172 177 171 188 176 157 152 142 85 54 60
277 280 272 268 265 266 269 261 247 240 247 239 232 236 238 237 234 226 229 234 239 242 241 242 237 230 222 208 196 188 182 176 183 182 174 187 163 157 166 142 104 22 5
282 278 281 275 265 261 261 260 254 250 245 245 237 234 237 234 230 227 235 238 239 243 242 237 230 224 209 201 189 179 173 183 184 184 189 178 159 174 158 131 41 350 347
281 278 277 269 267 258 257 256 253 252 254 250 247 242 242 238 236 234 236 241 236 233 235 228 223 211 195 185 179 176 182 182 187 187 201 188 177 182 161 94 323 299 295
291 284 272 261 257 258 254 251 252 252 255 256 256 253 249 246 243 237 234 241 233 234 215 204 200 202 195 185 179 180 181 184 185 188 201 182 187 181 157 106 322 326 231
321 311 287 254 250 255 261 258 254 256 255 257 258 258 257 256 253 236 239 237 241 225 210 203 200 196 185 180 179 180 180 186 186 194 188 193 172 168 182 106 323 326 208
341 335 321 289 262 258 254 259 259 261 259 256 257 260 259 260 253 256 245 240 223 207 196 201 201 191 181 181 178 179 182 188 194 202 184 160 154 148 137 103 301 308 140
7 9 4 334 288 255 264 249 251 258 261 261 258 259 260 259 257 252 254 244 226 228 200 202 206 183 179 182 179 182 194 199 199 189 177 155 151 135 103 329 307 285 128
47 42 34 26 348 283 274 263 259 261 258 260 259 259 260 261 248 239 245 245 247 216 229 209 201 188 179 179 187 186 186 180 182 188 182 195 184 173 176 279 300 261 143
29 14 3 356 346 329 300 277 268 265 258 254 259 262 259 260 246 242 242 236 233 231 221 210 207 203 190 183 188 180 171 182 178 178 188 190 199 205 224 249 280 239 176
340 334 328 322 317 310 299 293 288 275 262 255 252 257 260 258 245 245 232 236 226 221 207 193 189 187 194 191 184 175 179 192 203 203 210 216 205 208 213 250 221 196 166
307 302 304 309 305 300 296 291 283 277 275 266 256 252 250 249 240 237 228 219 224 220 215 209 197 188 193 189 187 175 171 182 195 194 201 202 214 229 229 218 201 195 204
310 310 308 304 300 295 288 284 279 270 264 263 264 252 245 240 237 234 224 225 221 214 201 193 191 187 194 189 193 181 159 175 196 193 201 210 214 217 215 210 211 213 216
310 310 307 304 301 299 292 282 278 271 260 252 250 249 241 234 234 234 222 224 222 214 213 207 201 195 187 186 191 180 159 188 180 193 198 201 202 206 208 209 212 217 223
317 312 307 302 299 293 289 282 275 263 261 253 244 246 241 235 230 227 221 218 220 221 212 201 197 198 196 187 189 196 192 187 180 176 198 202 203 206 209 211 213 216 223
313 311 305 303 298 296 288 280 275 265 259 256 242 239 236 237 230 222 218 214 218 215 205 202 198 200 202 203 197 197 199 201 198 178 187 197 200 205 209 210 215 219 226
308 311 306 304 302 301 297 281 278 275 272 251 240 231 229 231 225 224 216 209 216 217 214 207 202 203 206 207 203 202 203 197 193 191 183 193 199 206 210 215 219 223 231